BEIDOU 3                
1 36287U 10001A   19260.46091124 -.00000287  00000-0  00000+0 0  9990
2 36287   1.3708   4.4858 0004476 154.7878 142.8295  1.00275005 35466
CZ-3C R/B               
1 36288U 10001B   19260.26413546  .00000246  00000-0  17270-3 0  9990
2 36288  20.3277 325.5370 7107060 321.8802   4.9960  2.48492037 85000